Hourly Weather Roundup
Issued by NWS Central Illinois

Home | Current Version | Previous Version | Text Only | Print | Product List | Glossary On
Versions: 1 2 3 4 5 6 7 8 9 10 11 12 13 14 15 16 17 18 19 20 21 22 23 24 25 26 27 28 29 30 31 32 33 34 35 36 37 38 39 40 41 42 43 44 45 46 47 48 49 50
000
NZUS43 KILX 171610
HWRILX

AREA WEATHER ROUNDUP
NATIONAL WEATHER SERVICE, LINCOLN IL
1100 AM CDT WED SEP 17 2014


CITY           SKY/WX    TMP DP  RH WIND       PRES   REMARKS
BLOOMINGTON    PTSUNNY   62  49  62 SW7       30.06R
CHAMPAIGN      MOSUNNY   64  51  62 S8        30.06S
DECATUR        PTSUNNY   62  51  67 SW6       30.07R
FLORA          MOSUNNY   61  52  71 S3        30.08R
GALESBURG      CLOUDY    61  54  78 S7        30.03S
JACKSONVILLE   PTSUNNY   63  53  71 S6        30.05S
LACON          PTSUNNY   62  50  65 SW8       30.04R
LAWRENCEVILLE  MOSUNNY   64  52  64 E7        30.05F
LITCHFIELD     PTSUNNY   60  53  76 S10       30.06S
$$


CITY           SKY/WX    TMP DP  RH WIND       PRES   REMARKS
LINCOLN        CLOUDY    64  53  69 S5        30.04S
MACOMB         CLOUDY    59  54  85 S7        30.05S
MATTOON        PTSUNNY   62  52  69 S6        30.06R
MT CARMEL AP   PTSUNNY   66  54  63 SE7       30.05R
OLNEY-NOBLE AP PTSUNNY   61  52  72 CALM      30.06S
PARIS          MOSUNNY   62  53  71 CALM      30.07S
PEORIA         CLOUDY    62  53  72 S7        30.05S
PONTIAC        NOT AVBL
RANTOUL        MOSUNNY   65  48  54 SE3       30.06S
ROBINSON       MOSUNNY   63  55  73 S3        30.07R
SPRINGFIELD    CLOUDY    62  52  69 S7        30.06S
TAYLORVILLE    PTSUNNY   63  52  67 S12       30.06R
$$

...REGIONAL REPORTS...


CITY           SKY/WX    TMP DP  RH WIND       PRES   REMARKS
CHICAGO O`HARE MOSUNNY   62  43  49 VRB3      30.03S
KANKAKEE       SUNNY     64  54  69 CALM      30.05S
MOLINE         CLOUDY    63  52  67 S8        30.02S
MOUNT VERNON   CLOUDY    63  54  72 SE5       30.09R
PITTSFIELD     CLOUDY    60  54  81 SE5       30.04R
QUINCY         CLOUDY    60  54  80 S9        30.02S
ROCKFORD       PTSUNNY   62  48  60 S3        30.05S
$$


CITY           SKY/WX    TMP DP  RH WIND       PRES   REMARKS
BURLINGTON     NOT AVBL
CEDAR RAPIDS   MOSUNNY   61  55  81 SE6       30.00S
DES MOINES     MOSUNNY   67  57  70 SE3       29.97S
KIRKSVILLE     CLOUDY    62  58  86 SE8       29.99F
OTTUMWA        CLOUDY    62  56  80 S5        29.99R
ST LOUIS       LGT RAIN  61  52  72 SE12      30.03F
$$


CITY           SKY/WX    TMP DP  RH WIND       PRES   REMARKS
TERRE HAUTE    MOSUNNY   62  51  67 CALM      30.07R
EVANSVILLE     MOSUNNY   63  51  65 SE10      30.03F
INDIANAPOLIS   PTSUNNY   61  49  64 SE7       30.05S
LAFAYETTE      SUNNY     62  53  72 VRB3      30.05S
MADISON        PTSUNNY   62  46  55 W6        30.02S
MILWAUKEE      MOSUNNY   64  44  48 W6        30.02F
$$





USA.gov is the U.S. government's official web portal to all federal, state and local government web resources and services.